Location: Asheville, NC
(35.6000°N, 82.5500°W)
Time: 07:54:30
(UTC-04:00)

Vanguard 2 - Pass Details

Date: 18 February 2018
Orbit: 552 x 2940 km, 32.9° (Epoch: 22 May)

Event Time Altitude Azimuth Distance (km) Brightness Sun altitude
Rises 19:21:10 0° 253° (WSW) 5,214 13.5 -14.1°
Reaches altitude 10° 19:25:17 10° 250° (WSW) 3,818 12.3 -14.9°
Maximum altitude 19:34:18 64° 172° (S) 1,167 8.3 -16.7°
Enters shadow 19:37:33 27° 100° (E) 1,631 8.6 -17.4°
